Location: Pedholt
(56.0260°N, 10.2097°E)
Time: 19:56:33
(UTC+00:00)

Tiros 1 - Pass Details

Date: 09 August 2021
Orbit: 630 x 663 km, 48.4° (Epoch: 19 September)

Event Time Altitude Azimuth Distance (km) Brightness Sun altitude
Rises 14:44:14 0° 217° (SW) 2,988 11.4 34.8°
Reaches altitude 10° 14:47:05 10° 200° (SSW) 2,076 10.5 34.4°
Maximum altitude 14:50:34 20° 154° (SSE) 1,513 9.2 34.0°
Drops below altitude 10° 14:54:01 10° 107° (ESE) 2,073 9.5 33.5°
Sets 14:56:52 0° 91° (E) 2,982 10.1 33.2°
